Weather History for Springfield, IL

Change the Weather History Date:

Wednesday, October 31, 2012

  Actual Average Record
Temperature  
Mean Temperature 42 °F 50 °F  
Max Temperature 53 °F 60 °F 86 °F (1950)
Min Temperature 31 °F 40 °F 22 °F (1925)
Degree Days  
Heating Degree Days 23 15  
Month to date heating degree days 358 328  
Since 1 July heating degree days 442 410  
Cooling Degree Days 0 0  
Month to date cooling degree days 13 22  
Year to date cooling degree days 1533 1121  
Moisture  
Dew Point 23 °F    
Average Humidity 49    
Maximum Humidity 72    
Minimum Humidity 26    
Precipitation  
Precipitation 0.00 in 0.10 in 1.42 in (1994)
Month to date precipitation 5.03 3.15  
Year to date precipitation 25.65 31.70  
Snow  
Snow 0.00 in 0.00 in T in (1993)
Month to date snowfall 0.0 T  
Since 1 July snowfall 0.0 T  
Since 1 September snowfall 0.0 T  
Snow Depth 0.00 in    
Sea Level Pressure  
Sea Level Pressure 29.94 in    
Wind  
Wind Speed 9 mph (WNW)    
Max Wind Speed 18 mph    
Max Gust Speed 24 mph    
Visibility 10 miles    
Events      
T = Trace of Precipitation, MM = Missing Value Source: NWS Daily Summary

Daily Weather History Graph

Daily Weather History Graph

Search for Another Location

Airport:

Trip Planner

Search our weather history database for the weather conditions in past years. The results will help you decide how hot, cold, wet, or windy it might be!

Date:

Astronomy

Oct. 31, 2012 Rise Set
Actual Time 7:26 AM CDT 5:57 PM CDT
Civil Twilight 6:58 AM CDT 6:25 PM CDT
Nautical Twilight 6:27 AM CDT 6:56 PM CDT
Astronomical Twilight 5:55 AM CDT 7:28 PM CDT
Moon 7:08 PM CDT (10/31) 9:07 AM CDT (10/31)
Length of Visible Light 11h 26m
Length of Day
10h 30m
Full, 97% of the Moon is Illuminated
Oct 31
Full
Nov 6
Last Quarter
Nov 13
New
Nov 20
First Quarter
Nov 28
Full

Hourly Weather History & Observations

Time (CDT) Temp. Windchill Dew Point Humidity Pressure Visibility Wind Dir Wind Speed Gust Speed Precip Events Conditions
12:52 AM 34.0 °F 28.8 °F 23.0 °F 64% 29.90 in 10.0 mi WNW 5.8 mph - N/A   Clear
1:52 AM 36.0 °F 29.0 °F 24.1 °F 62% 29.91 in 10.0 mi WNW 9.2 mph - N/A   Clear
2:52 AM 35.1 °F 28.6 °F 24.1 °F 64% 29.91 in 10.0 mi WNW 8.1 mph - N/A   Clear
3:52 AM 34.0 °F 27.2 °F 24.1 °F 67% 29.91 in 10.0 mi WNW 8.1 mph - N/A   Clear
4:52 AM 33.1 °F 27.7 °F 24.1 °F 70% 29.92 in 10.0 mi NW 5.8 mph - N/A   Clear
5:52 AM 33.1 °F 26.1 °F 24.1 °F 70% 29.92 in 10.0 mi NW 8.1 mph - N/A   Clear
6:52 AM 32.0 °F 24.8 °F 24.1 °F 73% 29.93 in 10.0 mi NW 8.1 mph - N/A   Clear
7:52 AM 32.0 °F 25.6 °F 24.1 °F 73% 29.95 in 10.0 mi NW 6.9 mph - N/A   Clear
8:52 AM 35.1 °F 28.6 °F 25.0 °F 67% 29.96 in 10.0 mi WNW 8.1 mph - N/A   Clear
9:52 AM 39.0 °F 32.3 °F 26.1 °F 60% 29.96 in 10.0 mi NNW 10.4 mph - N/A   Clear
10:52 AM 41.0 °F 35.2 °F 26.1 °F 55% 29.97 in 10.0 mi NNW 9.2 mph - N/A   Clear
11:52 AM 43.0 °F 36.8 °F 27.0 °F 53% 29.97 in 10.0 mi WNW 11.5 mph - N/A   Clear
12:52 PM 46.9 °F - 27.0 °F 46% 29.95 in 10.0 mi NW 9.2 mph - N/A   Clear
1:52 PM 50.0 °F - 24.1 °F 36% 29.94 in 10.0 mi WNW 13.8 mph 21.9 mph N/A   Clear
2:52 PM 51.1 °F - 21.9 °F 32% 29.93 in 10.0 mi WNW 13.8 mph - N/A   Clear
3:52 PM 52.0 °F - 17.1 °F 25% 29.93 in 10.0 mi NW 18.4 mph - N/A   Clear
4:52 PM 51.1 °F - 18.0 °F 27% 29.93 in 10.0 mi NW 13.8 mph 21.9 mph N/A   Clear
5:52 PM 48.0 °F - 19.0 °F 32% 29.94 in 10.0 mi WNW 10.4 mph - N/A   Clear
6:52 PM 45.0 °F 40.6 °F 19.9 °F 37% 29.95 in 10.0 mi WNW 8.1 mph - N/A   Clear
7:52 PM 43.0 °F 38.2 °F 21.0 °F 42% 29.96 in 10.0 mi WNW 8.1 mph - N/A   Clear
8:52 PM 39.9 °F 34.5 °F 21.0 °F 47% 29.96 in 10.0 mi WNW 8.1 mph - N/A   Clear
9:52 PM 36.0 °F 33.3 °F 21.9 °F 57% 29.97 in 10.0 mi WSW 3.5 mph - N/A   Clear
10:52 PM 32.0 °F 25.6 °F 23.0 °F 69% 29.97 in 10.0 mi West 6.9 mph - N/A   Clear
11:52 PM 33.1 °F 27.7 °F 21.9 °F 64% 29.97 in 10.0 mi West 5.8 mph - N/A   Clear